Погода в Новом Аделяково

Россия / Самарская область     54°28′59″N   51°08′30″E
темп.,
°C
ветер,
м/с
пор.,
м/с
влажн.,
%
обл.,
%
осадки,
мм/ч
давл.,
гПа
погр.,
м
28 июля, ср
ср2801:00+14сз22875 0.0 101530
04:00+12с22843 0.0 101522
07:00+15ссв24676 0.0 1016189
10:00+20с46405 0.0 10161561
13:00+22ссз45350 0.0 10151944
16:00+23ссз45305 0.0 10142187
19:00+21с46360 0.0 1015426
22:00+15ссв22520 0.0 101510
29 июля, чт
чт2901:00+13ю11560 0.0 101510
04:00+12ююз2259100 0.0 101512
07:00+16ююз244889 0.0 1014141
10:00+23юз4535100 0.0 1013970
13:00+25зюз4432100 0.0 10111725
16:00+17зюз5986100 0.5 1011331
19:00+16юв51093100 2.3 1008244
22:00+16ю41293100 2.6 1007411
30 июля, пт
пт3001:00+16ю41495100 7.3 1004520
04:00+16зюз4109794 7.4 1004322
07:00+17з5996100 0.2 1005485
10:00+21зсз677960 0.3 1006861
13:00+24зсз6756100 0.1 10071358
16:00+25з5754100 0.1 10071583
19:00+24зсз246397 0.0 1007141
22:00+21ююз227190 0.0 100717
31 июля, сб
сб3101:00+21ю3571100 0.1 1006103
04:00+18юв1180100 0.1 100711
07:00+19ю2478100 0.2 1007110
10:00+23ююз476560 1.1 1006556
13:00+28юз6949100 0.1 10051577
16:00+28з7951100 0.1 10051916
19:00+25зсз696110 0.0 10061012
22:00+21з227271 0.0 100726
1 августа, вс
вс101:00+21зюз367115 0.0 1009150
04:00+18зюз338499 0.0 101045
07:00+21юз367090 0.0 1010186
10:00+27зюз68435 0.0 10111097
13:00+29зсз793355 0.0 10112332
16:00+29зсз573329 0.0 10102138
19:00+27сз364529 0.0 1011199
22:00+22юв11575 0.0 101111